Home > Weather > Pictou County > Past weeks

Flag for Canada Weather for the Past 2 Weeks in Pictou County, Nova Scotia, Canada

Now
16 °F

Cold.


Feels Like: -1 °F
Forecast: N/A
Wind: 20 mph from Northwest

Location: Caribou Point

Current Time: Feb 12, 2016 at 5:13:21 PM

Latest Report: Feb 12, 2016 at 4:00 PM


Visibility: N/A

Pressure: 29.88 "Hg

Humidity: 70%

Dew point: 8 °F

Location of Pictou CountyLocation

Historic Weather in Pictou County — Graph

°F

Pictou County Temperature Yesterday

Maximum temperature yesterday: 31 °F (at 12:00 PM)
Minimum temperature yesterday: 22 °F (at 2:00 AM)
Average temperature yesterday: 27 °F

High & Low Weather Summary for the Past Weeks

 TemperatureHumidityPressure
High51 °F (Feb 1, 3:00 PM)100% (Jan 29, 3:00 PM)30.53 "Hg (Jan 29, 3:00 PM)
Low14 °F (Feb 12, 11:00 AM)56% (Feb 7, 7:00 PM)29.06 "Hg (Jan 29, 6:00 PM)
Average29 °F87%29.82 "Hg
* Reported Jan 28 4:00 PM — Feb 12 4:00 PM, Pictou County, Weather by CustomWeather, © 2016

Note: Actual official high and low records may vary slightly from our data, if they occured in-between our weather recording intervals... More about our weather records

Advertising

Pictou County Weather History for the Previous 24 Hours

 ConditionsComfort  
Time TempWeatherWind HumidityBarometerVisibility
4:00 PM
Fri, Feb 12
16 °FCold.20 mph70%29.88 "HgN/A
3:00 PM15 °FCold.20 mph72%29.85 "HgN/A
2:00 PM16 °FCold.18 mph72%29.84 "HgN/A
1:00 PM16 °FCold.16 mph69%29.83 "HgN/A
12:00 PM17 °FCold.20 mph66%29.84 "HgN/A
11:00 AM14 °FCold.21 mph71%29.83 "HgN/A
10:00 AM15 °FCold.21 mph77%29.82 "HgN/A
9:00 AM15 °FCold.22 mph86%29.78 "HgN/A
8:00 AM18 °FCold.22 mph80%29.74 "HgN/A
7:00 AM18 °FCold.23 mph82%29.70 "HgN/A
6:00 AM20 °FCold.23 mph84%29.67 "HgN/A
5:00 AM21 °FCold.23 mph85%29.64 "HgN/A
4:00 AM23 °FCold.17 mph86%29.61 "HgN/A
3:00 AM24 °FCold.21 mph88%29.58 "HgN/A
2:00 AM25 °FCold.17 mph85%29.57 "HgN/A
1:00 AM24 °FCold.16 mph89%29.56 "HgN/A
12:00 AM25 °FChilly.16 mph89%29.55 "HgN/A
11:00 PM
Thu, Feb 11
26 °FChilly.21 mph95%29.52 "HgN/A
10:00 PM29 °FChilly.1 mph100%29.49 "HgN/A
9:00 PM31 °FChilly.2 mph93%29.50 "HgN/A
8:00 PM30 °FChilly.3 mph98%29.52 "HgN/A
7:00 PM30 °FChilly.No wind90%29.52 "HgN/A
5:00 PM29 °FChilly.7 mph87%29.52 "HgN/A
Weather by CustomWeather, © 2016

See weather overviewHow to use our weather pages